Location: Moscow
(30.9132°N, 94.8252°W)
Time: 11:44:22
(UTC+00:00)

Cosmos 1331 Rocket - Pass Details

Date: 15 November 2025
Orbit: 746 x 772 km, 74.0° (Epoch: 11 December)

Event Time Altitude Azimuth Distance (km) Brightness Sun altitude
Rises 11:38:03 0° 200° (SSW) 3,228 7.2 -14.8°
Reaches altitude 10° 11:40:26 10° 203° (SSW) 2,303 6.4 -14.3°
Maximum altitude 11:45:38 71° 286° (WNW) 811 3.9 -13.2°
Drops below altitude 10° 11:50:52 10° 11° (N) 2,303 6.4 -12.1°
Sets 11:53:15 0° 14° (NNE) 3,229 7.2 -11.7°
